Home   Weather   Lünen   Past weeks

Flag for Germany Past Weather in Lünen, North Rhine-Westphalia, Germany — Yesterday and Last 2 Weeks

Now
52 °F

Passing clouds.


Feels Like: 46 °F
Forecast: 39 / 48 °F
Wind: 22 mph from Southwest

Location: Muenster / Osnabrueck

Current Time: Feb 22, 2017 at 5:06:30 am

Latest Report: Feb 22, 2017 at 4:20 am


Visibility: N/A

Pressure: 29.68 "Hg

Humidity: 82%

Dew Point: 46 °F

Location of LünenLocation

Past Weather in Lünen — Graph

°F

Lünen Temperature Yesterday

Maximum temperature yesterday: 52 °F (at 1:20 pm)
Minimum temperature yesterday: 45 °F (at 8:20 pm)
Average temperature yesterday: 48 °F

High & Low Weather Summary for the Past Weeks

 TemperatureHumidityPressure
High55 °F (Feb 15, 2:50 pm)100% (Feb 16, 5:20 am)30.51 "Hg (Feb 16, 5:20 am)
Low27 °F (Feb 9, 10:50 pm)29% (Feb 14, 12:20 pm)29.68 "Hg (Feb 22, 3:50 am)
Average38 °F82%30.24 "Hg
* Reported Feb 7 3:20 am — Feb 22 3:50 am, Lünen, Weather by CustomWeather, © 2017

Note: Actual official high and low records may vary slightly from our data, if they occured in-between our weather recording intervals... More about our weather records

Advertising

Lünen Weather History for the Previous 24 Hours

Scroll right to see more
 ConditionsComfort  
Time TempWeatherWind HumidityBarometerVisibility
3:50 am
Wed, Feb 22
52 °FPassing clouds.21 mph82%29.68 "HgN/A
3:20 am52 °FPassing clouds.22 mph88%29.71 "HgN/A
2:50 am52 °FPassing clouds.20 mph88%29.71 "HgN/A
2:20 am50 °FPassing clouds.22 mph94%29.71 "HgN/A
1:50 am50 °FPassing clouds.18 mph94%29.71 "Hg6 mi
1:20 am50 °FPassing clouds.16 mph94%29.74 "Hg6 mi
12:50 am50 °FPassing clouds.14 mph94%29.77 "Hg4 mi
12:20 am48 °FPassing clouds.9 mph94%29.77 "Hg4 mi
11:50 pm
Tue, Feb 21
46 °FPassing clouds.8 mph93%29.80 "Hg4 mi
11:20 pm46 °FPassing clouds.9 mph93%29.83 "Hg5 mi
10:50 pm46 °FPassing clouds.9 mph93%29.83 "Hg4 mi
10:20 pm46 °FPassing clouds.7 mph82%29.86 "HgN/A
9:50 pm45 °FPassing clouds.6 mph81%29.86 "HgN/A
9:20 pm45 °FPassing clouds.7 mph81%29.89 "HgN/A
8:50 pm45 °FClear.7 mph81%29.89 "Hg10 mi
8:20 pm45 °FClear.7 mph81%29.89 "Hg10 mi
7:50 pm46 °FPassing clouds.7 mph76%29.92 "HgN/A
7:20 pm46 °FPassing clouds.6 mph76%29.92 "HgN/A
6:50 pm46 °FPassing clouds.7 mph76%29.92 "HgN/A
6:20 pm46 °FPassing clouds.6 mph76%29.92 "HgN/A
5:50 pm46 °FPartly sunny.8 mph71%29.92 "HgN/A
5:20 pm48 °FBroken clouds.12 mph71%29.92 "HgN/A
4:50 pm50 °FBroken clouds.14 mph62%29.92 "HgN/A
4:20 pm50 °FScattered clouds.10 mph62%29.92 "HgN/A
3:50 pm50 °FScattered clouds.10 mph62%29.95 "HgN/A
3:20 pm50 °FScattered clouds.10 mph62%29.95 "HgN/A
2:50 pm50 °FScattered clouds.15 mph62%29.95 "HgN/A
2:20 pm50 °FScattered clouds.18 mph62%29.95 "HgN/A
1:50 pm50 °FScattered clouds.18 mph67%29.95 "HgN/A
1:20 pm52 °FScattered clouds.18 mph62%29.95 "HgN/A
12:50 pm48 °FPartly sunny.14 mph76%29.95 "HgN/A
12:20 pm48 °FBroken clouds.15 mph76%29.95 "HgN/A
11:50 am48 °FScattered clouds.15 mph76%29.95 "HgN/A
11:20 am48 °FBroken clouds.15 mph76%29.95 "HgN/A
10:50 am46 °FBroken clouds.14 mph82%29.95 "HgN/A
10:20 am46 °FBroken clouds.15 mph87%29.92 "HgN/A
9:50 am46 °FPartly sunny.15 mph87%29.92 "HgN/A
9:20 am46 °FScattered clouds.15 mph87%29.92 "HgN/A
8:50 am46 °FBroken clouds.16 mph87%29.89 "HgN/A
8:20 am46 °FBroken clouds.14 mph87%29.89 "HgN/A
7:50 am46 °FPartly sunny.15 mph87%29.89 "HgN/A
7:20 am46 °FPartly cloudy.12 mph87%29.89 "HgN/A
6:50 am46 °FPartly cloudy.13 mph87%29.89 "HgN/A
6:20 am46 °FPartly cloudy.15 mph87%29.86 "HgN/A
5:50 am46 °FPassing clouds.14 mph87%29.86 "HgN/A
5:20 am46 °FPartly cloudy.14 mph93%29.86 "HgN/A
Weather by CustomWeather, © 2017

See weather overviewHow to use our weather pages